Location: ???? ???? ?????
(31.2680°N, 31.7283°E)
Time: 09:55:07
(UTC+00:00)

Cosmos 1745 Rocket - Pass Details

Date: 13 July 2020
Orbit: 953 x 997 km, 83.0° (Epoch: 07 August)

Event Time Altitude Azimuth Distance (km) Brightness Sun altitude
Rises 17:41:20 0° 188° (S) 3,635 6.7 -8.7°
Reaches altitude 10° 17:43:49 10° 189° (S) 2,697 6.1 -9.2°
Maximum altitude 17:50:00 78° 276° (W) 998 4.2 -10.3°
Drops below altitude 10° 17:56:17 10° 3° (N) 2,742 6.8 -11.4°
Sets 17:58:50 0° 4° (N) 3,699 7.5 -11.8°
